owner,sensor,date,latitude,longitude,vertical_datum,wind_speed,wind_to_direction,wind_speed_of_gust,qcFlag 
SCCF RECON,ioos:station:SCCF:53:1,2017-02-01T00:00:00Z,26.6493,-81.8810,2.11,2.5,312.3,-9999.0,'1111122,1111122,1111122' 
SCCF RECON,ioos:station:SCCF:53:1,2017-02-01T00:15:00Z,26.6493,-81.8810,2.11,3.5,312.3,-9999.0,'1111122,1111122,1111122' 
SCCF RECON,ioos:station:SCCF:53:1,2017-02-01T00:30:00Z,26.6493,-81.8810,2.11,3.2,313.5,-9999.0,'1111122,1111122,1111122' 
SCCF RECON,ioos:station:SCCF:53:1,2017-02-01T00:45:00Z,26.6493,-81.8810,2.11,3.3,307.5,-9999.0,'1111122,1111122,1111122' 
SCCF RECON,ioos:station:SCCF:53:1,2017-02-01T01:00:00Z,26.6493,-81.8810,2.11,2.7,313.0,-9999.0,'1111122,1111122,1111122' 
SCCF RECON,ioos:station:SCCF:53:1,2017-02-01T01:15:00Z,26.6493,-81.8810,2.11,1.9,318.9,-9999.0,'1111122,1111122,1111122' 
SCCF RECON,ioos:station:SCCF:53:1,2017-02-01T01:30:00Z,26.6493,-81.8810,2.11,2.6,330.5,-9999.0,'1111122,1111122,1111122' 
SCCF RECON,ioos:station:SCCF:53:1,2017-02-01T01:45:00Z,26.6493,-81.8810,2.11,2.8,330.5,-9999.0,'1111122,1111122,1111122' 
SCCF RECON,ioos:station:SCCF:53:1,2017-02-01T02:00:00Z,26.6493,-81.8810,2.11,2.9,354.9,-9999.0,'1111122,1111122,1111122' 
SCCF RECON,ioos:station:SCCF:53:1,2017-02-01T02:15:00Z,26.6493,-81.8810,2.11,3.8,348.1,-9999.0,'1111122,1111122,1111122' 
SCCF RECON,ioos:station:SCCF:53:1,2017-02-01T02:30:00Z,26.6493,-81.8810,2.11,2.8,16.3,-9999.0,'1111122,1111122,1111122' 
SCCF RECON,ioos:station:SCCF:53:1,2017-02-01T02:45:00Z,26.6493,-81.8810,2.11,2.4,52.3,-9999.0,'1111122,1111122,1111122' 
SCCF RECON,ioos:station:SCCF:53:1,2017-02-01T03:00:00Z,26.6493,-81.8810,2.11,2.1,76.1,-9999.0,'1111122,1111122,1111122' 
SCCF RECON,ioos:station:SCCF:53:1,2017-02-01T03:15:00Z,26.6493,-81.8810,2.11,3.2,75.7,-9999.0,'1111122,1111122,1111122' 
SCCF RECON,ioos:station:SCCF:53:1,2017-02-01T03:30:00Z,26.6493,-81.8810,2.11,2.3,86.4,-9999.0,'1111122,1111122,1111122' 
SCCF RECON,ioos:station:SCCF:53:1,2017-02-01T03:45:00Z,26.6493,-81.8810,2.11,3.6,131.5,-9999.0,'1111122,1111122,1111122' 
SCCF RECON,ioos:station:SCCF:53:1,2017-02-01T04:00:00Z,26.6493,-81.8810,2.11,4.0,133.5,-9999.0,'1111122,1111122,1111122' 
SCCF RECON,ioos:station:SCCF:53:1,2017-02-01T04:15:00Z,26.6493,-81.8810,2.11,3.7,133.8,-9999.0,'1111122,1111122,1111122' 
SCCF RECON,ioos:station:SCCF:53:1,2017-02-01T04:30:00Z,26.6493,-81.8810,2.11,3.2,124.6,-9999.0,'1111122,1111122,1111122' 
SCCF RECON,ioos:station:SCCF:53:1,2017-02-01T04:45:00Z,26.6493,-81.8810,2.11,3.4,127.0,-9999.0,'1111122,1111122,1111122' 
SCCF RECON,ioos:station:SCCF:53:1,2017-02-01T05:00:00Z,26.6493,-81.8810,2.11,1.8,120.6,-9999.0,'1111122,1111122,1111122' 
SCCF RECON,ioos:station:SCCF:53:1,2017-02-01T05:15:00Z,26.6493,-81.8810,2.11,3.1,131.3,-9999.0,'1111122,1111122,1111122' 
SCCF RECON,ioos:station:SCCF:53:1,2017-02-01T05:30:00Z,26.6493,-81.8810,2.11,2.8,132.5,-9999.0,'1111122,1111122,1111122' 
SCCF RECON,ioos:station:SCCF:53:1,2017-02-01T05:45:00Z,26.6493,-81.8810,2.11,2.7,126.0,-9999.0,'1111122,1111122,1111122' 
SCCF RECON,ioos:station:SCCF:53:1,2017-02-01T06:00:00Z,26.6493,-81.8810,2.11,3.3,135.0,-9999.0,'1111122,1111122,1111122' 
SCCF RECON,ioos:station:SCCF:53:1,2017-02-01T06:15:00Z,26.6493,-81.8810,2.11,3.4,114.2,-9999.0,'1111122,1111122,1111122' 
SCCF RECON,ioos:station:SCCF:53:1,2017-02-01T06:30:00Z,26.6493,-81.8810,2.11,3.3,130.4,-9999.0,'1111122,1111122,1111122' 
SCCF RECON,ioos:station:SCCF:53:1,2017-02-01T06:45:00Z,26.6493,-81.8810,2.11,1.6,144.5,-9999.0,'1111122,1111122,1111122' 
SCCF RECON,ioos:station:SCCF:53:1,2017-02-01T07:00:00Z,26.6493,-81.8810,2.11,1.5,150.7,-9999.0,'1111122,1111122,1111122' 
SCCF RECON,ioos:station:SCCF:53:1,2017-02-01T07:15:00Z,26.6493,-81.8810,2.11,1.4,15.2,-9999.0,'1111122,1111122,1111122' 
SCCF RECON,ioos:station:SCCF:53:1,2017-02-01T07:30:00Z,26.6493,-81.8810,2.11,0.6,39.4,-9999.0,'1111122,1111122,1111122' 
SCCF RECON,ioos:station:SCCF:53:1,2017-02-01T07:45:00Z,26.6493,-81.8810,2.11,0.8,117.1,-9999.0,'1111122,1111122,1111122' 
SCCF RECON,ioos:station:SCCF:53:1,2017-02-01T08:00:00Z,26.6493,-81.8810,2.11,1.5,69.0,-9999.0,'1111122,1111122,1111122' 
SCCF RECON,ioos:station:SCCF:53:1,2017-02-01T08:15:00Z,26.6493,-81.8810,2.11,1.6,137.4,-9999.0,'1111122,1111122,1111122' 
SCCF RECON,ioos:station:SCCF:53:1,2017-02-01T08:30:00Z,26.6493,-81.8810,2.11,2.1,118.8,-9999.0,'1111122,1111122,1111122' 
SCCF RECON,ioos:station:SCCF:53:1,2017-02-01T08:45:00Z,26.6493,-81.8810,2.11,1.9,81.4,-9999.0,'1111122,1111122,1111122' 
SCCF RECON,ioos:station:SCCF:53:1,2017-02-01T09:00:00Z,26.6493,-81.8810,2.11,1.3,141.2,-9999.0,'1111122,1111122,1111122' 
SCCF RECON,ioos:station:SCCF:53:1,2017-02-01T09:15:00Z,26.6493,-81.8810,2.11,2.0,76.0,-9999.0,'1111122,1111122,1111122' 
SCCF RECON,ioos:station:SCCF:53:1,2017-02-01T09:30:00Z,26.6493,-81.8810,2.11,1.9,66.5,-9999.0,'1111122,1111122,1111122' 
SCCF RECON,ioos:station:SCCF:53:1,2017-02-01T09:45:00Z,26.6493,-81.8810,2.11,1.8,70.3,-9999.0,'1111122,1111122,1111122' 
SCCF RECON,ioos:station:SCCF:53:1,2017-02-01T10:00:00Z,26.6493,-81.8810,2.11,2.1,61.2,-9999.0,'1111122,1111122,1111122' 
SCCF RECON,ioos:station:SCCF:53:1,2017-02-01T10:15:00Z,26.6493,-81.8810,2.11,1.8,76.0,-9999.0,'1111122,1111122,1111122' 
SCCF RECON,ioos:station:SCCF:53:1,2017-02-01T10:30:00Z,26.6493,-81.8810,2.11,3.0,49.3,-9999.0,'1111122,1111122,1111122' 
SCCF RECON,ioos:station:SCCF:53:1,2017-02-01T10:45:00Z,26.6493,-81.8810,2.11,2.8,44.0,-9999.0,'1111122,1111122,1111122' 
SCCF RECON,ioos:station:SCCF:53:1,2017-02-01T11:00:00Z,26.6493,-81.8810,2.11,2.2,38.2,-9999.0,'1111122,1111122,1111122' 
SCCF RECON,ioos:station:SCCF:53:1,2017-02-01T11:15:00Z,26.6493,-81.8810,2.11,3.5,36.8,-9999.0,'1111122,1111122,1111122' 
SCCF RECON,ioos:station:SCCF:53:1,2017-02-01T11:30:00Z,26.6493,-81.8810,2.11,2.8,50.6,-9999.0,'1111122,1111122,1111122' 
SCCF RECON,ioos:station:SCCF:53:1,2017-02-01T11:45:00Z,26.6493,-81.8810,2.11,3.3,64.9,-9999.0,'1111122,1111122,1111122' 
SCCF RECON,ioos:station:SCCF:53:1,2017-02-01T12:00:00Z,26.6493,-81.8810,2.11,3.5,68.2,-9999.0,'1111122,1111122,1111122' 
SCCF RECON,ioos:station:SCCF:53:1,2017-02-01T12:15:00Z,26.6493,-81.8810,2.11,2.6,76.6,-9999.0,'1111122,1111122,1111122' 
SCCF RECON,ioos:station:SCCF:53:1,2017-02-01T12:30:00Z,26.6493,-81.8810,2.11,2.1,80.0,-9999.0,'1111122,1111122,1111122' 
SCCF RECON,ioos:station:SCCF:53:1,2017-02-01T12:45:00Z,26.6493,-81.8810,2.11,2.9,56.7,-9999.0,'1111122,1111122,1111122' 
SCCF RECON,ioos:station:SCCF:53:1,2017-02-01T13:00:00Z,26.6493,-81.8810,2.11,3.1,71.6,-9999.0,'1111122,1111122,1111122' 
SCCF RECON,ioos:station:SCCF:53:1,2017-02-01T13:15:00Z,26.6493,-81.8810,2.11,2.4,62.1,-9999.0,'1111122,1111122,1111122' 
SCCF RECON,ioos:station:SCCF:53:1,2017-02-01T13:30:00Z,26.6493,-81.8810,2.11,2.6,50.7,-9999.0,'1111122,1111122,1111122' 
SCCF RECON,ioos:station:SCCF:53:1,2017-02-01T13:45:00Z,26.6493,-81.8810,2.11,2.6,41.6,-9999.0,'1111122,1111122,1111122' 
SCCF RECON,ioos:station:SCCF:53:1,2017-02-01T14:00:00Z,26.6493,-81.8810,2.11,2.4,64.3,-9999.0,'1111122,1111122,1111122' 
SCCF RECON,ioos:station:SCCF:53:1,2017-02-01T14:15:00Z,26.6493,-81.8810,2.11,2.1,60.5,-9999.0,'1111122,1111122,1111122' 
SCCF RECON,ioos:station:SCCF:53:1,2017-02-01T14:30:00Z,26.6493,-81.8810,2.11,1.7,36.7,-9999.0,'1111122,1111122,1111122' 
SCCF RECON,ioos:station:SCCF:53:1,2017-02-01T14:45:00Z,26.6493,-81.8810,2.11,1.3,32.0,-9999.0,'1111122,1111122,1111122' 
SCCF RECON,ioos:station:SCCF:53:1,2017-02-01T15:00:00Z,26.6493,-81.8810,2.11,1.7,12.8,-9999.0,'1111122,1111122,1111122' 
SCCF RECON,ioos:station:SCCF:53:1,2017-02-01T15:15:00Z,26.6493,-81.8810,2.11,2.1,28.3,-9999.0,'1111122,1111122,1111122' 
SCCF RECON,ioos:station:SCCF:53:1,2017-02-01T15:30:00Z,26.6493,-81.8810,2.11,1.3,59.0,-9999.0,'1111122,1111122,1111122' 
SCCF RECON,ioos:station:SCCF:53:1,2017-02-01T15:45:00Z,26.6493,-81.8810,2.11,3.7,140.3,-9999.0,'1111122,1111122,1111122' 
SCCF RECON,ioos:station:SCCF:53:1,2017-02-01T16:00:00Z,26.6493,-81.8810,2.11,4.6,115.7,-9999.0,'1111122,1111122,1111122' 
SCCF RECON,ioos:station:SCCF:53:1,2017-02-01T16:15:00Z,26.6493,-81.8810,2.11,4.2,160.1,-9999.0,'1111122,1111122,1111122' 
SCCF RECON,ioos:station:SCCF:53:1,2017-02-01T16:30:00Z,26.6493,-81.8810,2.11,4.0,104.6,-9999.0,'1111122,1111122,1111122' 
SCCF RECON,ioos:station:SCCF:53:1,2017-02-01T16:45:00Z,26.6493,-81.8810,2.11,1.8,44.5,-9999.0,'1111122,1111122,1111122' 
SCCF RECON,ioos:station:SCCF:53:1,2017-02-01T17:00:00Z,26.6493,-81.8810,2.11,1.2,119.7,-9999.0,'1111122,1111122,1111122' 
SCCF RECON,ioos:station:SCCF:53:1,2017-02-01T17:15:00Z,26.6493,-81.8810,2.11,2.8,115.3,-9999.0,'1111122,1111122,1111122' 
SCCF RECON,ioos:station:SCCF:53:1,2017-02-01T17:30:00Z,26.6493,-81.8810,2.11,0.4,134.0,-9999.0,'1111122,1111122,1111122' 
SCCF RECON,ioos:station:SCCF:53:1,2017-02-01T17:45:00Z,26.6493,-81.8810,2.11,1.7,192.8,-9999.0,'1111122,1111122,1111122' 
SCCF RECON,ioos:station:SCCF:53:1,2017-02-01T18:00:00Z,26.6493,-81.8810,2.11,1.0,254.8,-9999.0,'1111122,1111122,1111122' 
SCCF RECON,ioos:station:SCCF:53:1,2017-02-01T18:15:00Z,26.6493,-81.8810,2.11,2.3,323.3,-9999.0,'1111122,1111122,1111122' 
SCCF RECON,ioos:station:SCCF:53:1,2017-02-01T18:30:00Z,26.6493,-81.8810,2.11,1.8,301.6,-9999.0,'1111122,1111122,1111122' 
SCCF RECON,ioos:station:SCCF:53:1,2017-02-01T18:45:00Z,26.6493,-81.8810,2.11,2.0,314.4,-9999.0,'1111122,1111122,1111122' 
SCCF RECON,ioos:station:SCCF:53:1,2017-02-01T19:00:00Z,26.6493,-81.8810,2.11,1.9,291.2,-9999.0,'1111122,1111122,1111122' 
SCCF RECON,ioos:station:SCCF:53:1,2017-02-01T19:15:00Z,26.6493,-81.8810,2.11,2.4,282.4,-9999.0,'1111122,1111122,1111122' 
SCCF RECON,ioos:station:SCCF:53:1,2017-02-01T19:30:00Z,26.6493,-81.8810,2.11,1.1,279.8,-9999.0,'1111122,1111122,1111122' 
SCCF RECON,ioos:station:SCCF:53:1,2017-02-01T19:45:00Z,26.6493,-81.8810,2.11,2.5,292.4,-9999.0,'1111122,1111122,1111122' 
SCCF RECON,ioos:station:SCCF:53:1,2017-02-01T20:00:00Z,26.6493,-81.8810,2.11,2.1,293.3,-9999.0,'1111122,1111122,1111122' 
SCCF RECON,ioos:station:SCCF:53:1,2017-02-01T20:15:00Z,26.6493,-81.8810,2.11,2.2,284.2,-9999.0,'1111122,1111122,1111122' 
SCCF RECON,ioos:station:SCCF:53:1,2017-02-01T20:30:00Z,26.6493,-81.8810,2.11,2.1,271.8,-9999.0,'1111122,1111122,1111122' 
SCCF RECON,ioos:station:SCCF:53:1,2017-02-01T20:45:00Z,26.6493,-81.8810,2.11,0.9,262.6,-9999.0,'1111122,1111122,1111122' 
SCCF RECON,ioos:station:SCCF:53:1,2017-02-01T21:00:00Z,26.6493,-81.8810,2.11,1.9,271.4,-9999.0,'1111122,1111122,1111122' 
SCCF RECON,ioos:station:SCCF:53:1,2017-02-01T21:15:00Z,26.6493,-81.8810,2.11,1.1,295.5,-9999.0,'1111122,1111122,1111122' 
SCCF RECON,ioos:station:SCCF:53:1,2017-02-01T21:30:00Z,26.6493,-81.8810,2.11,0.5,255.3,-9999.0,'1111122,1111122,1111122' 
SCCF RECON,ioos:station:SCCF:53:1,2017-02-01T21:45:00Z,26.6493,-81.8810,2.11,5.1,284.5,-9999.0,'1111122,1111122,1111122' 
SCCF RECON,ioos:station:SCCF:53:1,2017-02-01T22:00:00Z,26.6493,-81.8810,2.11,3.8,279.7,-9999.0,'1111122,1111122,1111122' 
SCCF RECON,ioos:station:SCCF:53:1,2017-02-01T22:15:00Z,26.6493,-81.8810,2.11,4.1,277.9,-9999.0,'1111122,1111122,1111122' 
SCCF RECON,ioos:station:SCCF:53:1,2017-02-01T22:30:00Z,26.6493,-81.8810,2.11,3.5,280.9,-9999.0,'1111122,1111122,1111122' 
SCCF RECON,ioos:station:SCCF:53:1,2017-02-01T22:45:00Z,26.6493,-81.8810,2.11,3.8,291.4,-9999.0,'1111122,1111122,1111122' 
SCCF RECON,ioos:station:SCCF:53:1,2017-02-01T23:00:00Z,26.6493,-81.8810,2.11,3.9,302.5,-9999.0,'1111122,1111122,1111122' 
SCCF RECON,ioos:station:SCCF:53:1,2017-02-01T23:15:00Z,26.6493,-81.8810,2.11,4.0,294.7,-9999.0,'1111122,1111122,1111122' 
SCCF RECON,ioos:station:SCCF:53:1,2017-02-01T23:30:00Z,26.6493,-81.8810,2.11,2.9,295.4,-9999.0,'1111122,1111122,1111122' 
SCCF RECON,ioos:station:SCCF:53:1,2017-02-01T23:45:00Z,26.6493,-81.8810,2.11,2.4,294.2,-9999.0,'1111122,1111122,1111122' 
SCCF RECON,ioos:station:SCCF:53:1,2017-02-02T00:00:00Z,26.6493,-81.8810,2.11,1.4,282.6,-9999.0,'1111122,1111122,1111122' 
SCCF RECON,ioos:station:SCCF:53:1,2017-02-02T00:15:00Z,26.6493,-81.8810,2.11,0.7,255.7,-9999.0,'1111122,1111122,1111122' 
SCCF RECON,ioos:station:SCCF:53:1,2017-02-02T00:30:00Z,26.6493,-81.8810,2.11,0.4,286.7,-9999.0,'1111122,1111122,1111122' 
SCCF RECON,ioos:station:SCCF:53:1,2017-02-02T00:45:00Z,26.6493,-81.8810,2.11,0.5,279.9,-9999.0,'1111122,1111122,1111122' 
SCCF RECON,ioos:station:SCCF:53:1,2017-02-02T01:00:00Z,26.6493,-81.8810,2.11,0.5,266.7,-9999.0,'1111122,1111122,1111122' 
SCCF RECON,ioos:station:SCCF:53:1,2017-02-02T01:15:00Z,26.6493,-81.8810,2.11,2.3,44.6,-9999.0,'1111122,1111122,1111122' 
SCCF RECON,ioos:station:SCCF:53:1,2017-02-02T01:30:00Z,26.6493,-81.8810,2.11,2.0,30.8,-9999.0,'1111122,1111122,1111122' 
SCCF RECON,ioos:station:SCCF:53:1,2017-02-02T01:45:00Z,26.6493,-81.8810,2.11,2.1,23.1,-9999.0,'1111122,1111122,1111122' 
SCCF RECON,ioos:station:SCCF:53:1,2017-02-02T02:00:00Z,26.6493,-81.8810,2.11,1.9,25.5,-9999.0,'1111122,1111122,1111122' 
SCCF RECON,ioos:station:SCCF:53:1,2017-02-02T02:15:00Z,26.6493,-81.8810,2.11,1.5,27.1,-9999.0,'1111122,1111122,1111122' 
SCCF RECON,ioos:station:SCCF:53:1,2017-02-02T02:30:00Z,26.6493,-81.8810,2.11,1.8,16.9,-9999.0,'1111122,1111122,1111122' 
SCCF RECON,ioos:station:SCCF:53:1,2017-02-02T02:45:00Z,26.6493,-81.8810,2.11,1.6,15.0,-9999.0,'1111122,1111122,1111122' 
SCCF RECON,ioos:station:SCCF:53:1,2017-02-02T03:00:00Z,26.6493,-81.8810,2.11,1.2,30.5,-9999.0,'1111122,1111122,1111122' 
SCCF RECON,ioos:station:SCCF:53:1,2017-02-02T03:15:00Z,26.6493,-81.8810,2.11,2.0,44.4,-9999.0,'1111122,1111122,1111122' 
SCCF RECON,ioos:station:SCCF:53:1,2017-02-02T03:30:00Z,26.6493,-81.8810,2.11,2.3,28.9,-9999.0,'1111122,1111122,1111122' 
SCCF RECON,ioos:station:SCCF:53:1,2017-02-02T03:45:00Z,26.6493,-81.8810,2.11,3.3,26.1,-9999.0,'1111122,1111122,1111122' 
SCCF RECON,ioos:station:SCCF:53:1,2017-02-02T04:00:00Z,26.6493,-81.8810,2.11,2.5,33.4,-9999.0,'1111122,1111122,1111122' 
SCCF RECON,ioos:station:SCCF:53:1,2017-02-02T04:15:00Z,26.6493,-81.8810,2.11,2.4,31.2,-9999.0,'1111122,1111122,1111122' 
SCCF RECON,ioos:station:SCCF:53:1,2017-02-02T04:30:00Z,26.6493,-81.8810,2.11,2.6,15.2,-9999.0,'1111122,1111122,1111122' 
SCCF RECON,ioos:station:SCCF:53:1,2017-02-02T04:45:00Z,26.6493,-81.8810,2.11,2.8,34.3,-9999.0,'1111122,1111122,1111122' 
SCCF RECON,ioos:station:SCCF:53:1,2017-02-02T05:00:00Z,26.6493,-81.8810,2.11,3.1,33.4,-9999.0,'1111122,1111122,1111122' 
SCCF RECON,ioos:station:SCCF:53:1,2017-02-02T05:15:00Z,26.6493,-81.8810,2.11,2.7,24.4,-9999.0,'1111122,1111122,1111122' 
SCCF RECON,ioos:station:SCCF:53:1,2017-02-02T05:30:00Z,26.6493,-81.8810,2.11,3.2,33.7,-9999.0,'1111122,1111122,1111122' 
SCCF RECON,ioos:station:SCCF:53:1,2017-02-02T05:45:00Z,26.6493,-81.8810,2.11,2.6,41.1,-9999.0,'1111122,1111122,1111122' 
SCCF RECON,ioos:station:SCCF:53:1,2017-02-02T06:00:00Z,26.6493,-81.8810,2.11,2.4,30.0,-9999.0,'1111122,1111122,1111122' 
SCCF RECON,ioos:station:SCCF:53:1,2017-02-02T06:15:00Z,26.6493,-81.8810,2.11,2.4,42.6,-9999.0,'1111122,1111122,1111122' 
SCCF RECON,ioos:station:SCCF:53:1,2017-02-02T06:30:00Z,26.6493,-81.8810,2.11,2.4,70.9,-9999.0,'1111122,1111122,1111122' 
SCCF RECON,ioos:station:SCCF:53:1,2017-02-02T06:45:00Z,26.6493,-81.8810,2.11,2.0,87.3,-9999.0,'1111122,1111122,1111122' 
SCCF RECON,ioos:station:SCCF:53:1,2017-02-02T07:00:00Z,26.6493,-81.8810,2.11,2.3,77.3,-9999.0,'1111122,1111122,1111122' 
SCCF RECON,ioos:station:SCCF:53:1,2017-02-02T07:15:00Z,26.6493,-81.8810,2.11,2.5,96.4,-9999.0,'1111122,1111122,1111122' 
SCCF RECON,ioos:station:SCCF:53:1,2017-02-02T07:30:00Z,26.6493,-81.8810,2.11,2.3,68.6,-9999.0,'1111122,1111122,1111122' 
SCCF RECON,ioos:station:SCCF:53:1,2017-02-02T07:45:00Z,26.6493,-81.8810,2.11,2.9,82.6,-9999.0,'1111122,1111122,1111122' 
SCCF RECON,ioos:station:SCCF:53:1,2017-02-02T08:00:00Z,26.6493,-81.8810,2.11,2.6,73.2,-9999.0,'1111122,1111122,1111122' 
SCCF RECON,ioos:station:SCCF:53:1,2017-02-02T08:15:00Z,26.6493,-81.8810,2.11,1.8,79.0,-9999.0,'1111122,1111122,1111122' 
SCCF RECON,ioos:station:SCCF:53:1,2017-02-02T08:30:00Z,26.6493,-81.8810,2.11,1.7,72.4,-9999.0,'1111122,1111122,1111122' 
SCCF RECON,ioos:station:SCCF:53:1,2017-02-02T08:45:00Z,26.6493,-81.8810,2.11,1.5,59.0,-9999.0,'1111122,1111122,1111122' 
SCCF RECON,ioos:station:SCCF:53:1,2017-02-02T09:00:00Z,26.6493,-81.8810,2.11,1.4,87.0,-9999.0,'1111122,1111122,1111122' 
SCCF RECON,ioos:station:SCCF:53:1,2017-02-02T09:15:00Z,26.6493,-81.8810,2.11,-9999.0,95.3,-9999.0,'1111122,1111122,1111122' 
SCCF RECON,ioos:station:SCCF:53:1,2017-02-02T09:30:00Z,26.6493,-81.8810,2.11,1.3,91.1,-9999.0,'1111122,1111122,1111122' 
SCCF RECON,ioos:station:SCCF:53:1,2017-02-02T09:45:00Z,26.6493,-81.8810,2.11,1.7,101.4,-9999.0,'1111122,1111122,1111122' 
SCCF RECON,ioos:station:SCCF:53:1,2017-02-02T10:00:00Z,26.6493,-81.8810,2.11,1.1,58.7,-9999.0,'1111122,1111122,1111122' 
SCCF RECON,ioos:station:SCCF:53:1,2017-02-02T10:15:00Z,26.6493,-81.8810,2.11,0.9,88.7,-9999.0,'1111122,1111122,1111122' 
SCCF RECON,ioos:station:SCCF:53:1,2017-02-02T10:30:00Z,26.6493,-81.8810,2.11,0.8,41.8,-9999.0,'1111122,1111122,1111122' 
SCCF RECON,ioos:station:SCCF:53:1,2017-02-02T10:45:00Z,26.6493,-81.8810,2.11,0.3,48.1,-9999.0,'1111122,1111122,1111122' 
SCCF RECON,ioos:station:SCCF:53:1,2017-02-02T11:00:00Z,26.6493,-81.8810,2.11,1.2,12.7,-9999.0,'1111122,1111122,1111122' 
SCCF RECON,ioos:station:SCCF:53:1,2017-02-02T11:15:00Z,26.6493,-81.8810,2.11,1.1,330.7,-9999.0,'1111122,1111122,1111122' 
SCCF RECON,ioos:station:SCCF:53:1,2017-02-02T11:30:00Z,26.6493,-81.8810,2.11,0.9,341.1,-9999.0,'1111122,1111122,1111122' 
SCCF RECON,ioos:station:SCCF:53:1,2017-02-02T11:45:00Z,26.6493,-81.8810,2.11,1.9,324.0,-9999.0,'1111122,1111122,1111122' 
SCCF RECON,ioos:station:SCCF:53:1,2017-02-02T12:00:00Z,26.6493,-81.8810,2.11,2.6,332.7,-9999.0,'1111122,1111122,1111122' 
SCCF RECON,ioos:station:SCCF:53:1,2017-02-02T12:15:00Z,26.6493,-81.8810,2.11,2.0,354.9,-9999.0,'1111122,1111122,1111122' 
SCCF RECON,ioos:station:SCCF:53:1,2017-02-02T12:30:00Z,26.6493,-81.8810,2.11,1.6,10.6,-9999.0,'1111122,1111122,1111122' 
SCCF RECON,ioos:station:SCCF:53:1,2017-02-02T12:45:00Z,26.6493,-81.8810,2.11,1.7,11.9,-9999.0,'1111122,1111122,1111122' 
SCCF RECON,ioos:station:SCCF:53:1,2017-02-02T13:00:00Z,26.6493,-81.8810,2.11,1.6,18.2,-9999.0,'1111122,1111122,1111122' 
SCCF RECON,ioos:station:SCCF:53:1,2017-02-02T13:15:00Z,26.6493,-81.8810,2.11,1.6,31.3,-9999.0,'1111122,1111122,1111122' 
SCCF RECON,ioos:station:SCCF:53:1,2017-02-02T13:30:00Z,26.6493,-81.8810,2.11,1.9,28.4,-9999.0,'1111122,1111122,1111122' 
SCCF RECON,ioos:station:SCCF:53:1,2017-02-02T13:45:00Z,26.6493,-81.8810,2.11,2.3,54.6,-9999.0,'1111122,1111122,1111122' 
SCCF RECON,ioos:station:SCCF:53:1,2017-02-02T14:00:00Z,26.6493,-81.8810,2.11,2.2,36.7,-9999.0,'1111122,1111122,1111122' 
SCCF RECON,ioos:station:SCCF:53:1,2017-02-02T14:15:00Z,26.6493,-81.8810,2.11,2.3,27.9,-9999.0,'1111122,1111122,1111122' 
SCCF RECON,ioos:station:SCCF:53:1,2017-02-02T14:30:00Z,26.6493,-81.8810,2.11,2.0,36.6,-9999.0,'1111122,1111122,1111122' 
SCCF RECON,ioos:station:SCCF:53:1,2017-02-02T14:45:00Z,26.6493,-81.8810,2.11,1.4,40.7,-9999.0,'1111122,1111122,1111122' 
SCCF RECON,ioos:station:SCCF:53:1,2017-02-02T15:00:00Z,26.6493,-81.8810,2.11,1.9,25.8,-9999.0,'1111122,1111122,1111122' 
SCCF RECON,ioos:station:SCCF:53:1,2017-02-02T15:15:00Z,26.6493,-81.8810,2.11,1.8,24.1,-9999.0,'1111122,1111122,1111122' 
SCCF RECON,ioos:station:SCCF:53:1,2017-02-02T15:30:00Z,26.6493,-81.8810,2.11,1.8,25.4,-9999.0,'1111122,1111122,1111122' 
SCCF RECON,ioos:station:SCCF:53:1,2017-02-02T15:45:00Z,26.6493,-81.8810,2.11,2.4,22.5,-9999.0,'1111122,1111122,1111122' 
SCCF RECON,ioos:station:SCCF:53:1,2017-02-02T16:00:00Z,26.6493,-81.8810,2.11,1.9,8.5,-9999.0,'1111122,1111122,1111122' 
SCCF RECON,ioos:station:SCCF:53:1,2017-02-02T16:15:00Z,26.6493,-81.8810,2.11,1.4,353.5,-9999.0,'1111122,1111122,1111122' 
SCCF RECON,ioos:station:SCCF:53:1,2017-02-02T16:30:00Z,26.6493,-81.8810,2.11,1.5,340.5,-9999.0,'1111122,1111122,1111122' 
SCCF RECON,ioos:station:SCCF:53:1,2017-02-02T16:45:00Z,26.6493,-81.8810,2.11,2.1,317.3,-9999.0,'1111122,1111122,1111122' 
SCCF RECON,ioos:station:SCCF:53:1,2017-02-02T17:00:00Z,26.6493,-81.8810,2.11,1.6,286.1,-9999.0,'1111122,1111122,1111122' 
SCCF RECON,ioos:station:SCCF:53:1,2017-02-02T17:15:00Z,26.6493,-81.8810,2.11,2.0,280.9,-9999.0,'1111122,1111122,1111122' 
SCCF RECON,ioos:station:SCCF:53:1,2017-02-02T17:30:00Z,26.6493,-81.8810,2.11,2.0,306.7,-9999.0,'1111122,1111122,1111122' 
SCCF RECON,ioos:station:SCCF:53:1,2017-02-02T17:45:00Z,26.6493,-81.8810,2.11,1.3,284.7,-9999.0,'1111122,1111122,1111122' 
SCCF RECON,ioos:station:SCCF:53:1,2017-02-02T18:00:00Z,26.6493,-81.8810,2.11,1.1,296.8,-9999.0,'1111122,1111122,1111122' 
SCCF RECON,ioos:station:SCCF:53:1,2017-02-02T18:15:00Z,26.6493,-81.8810,2.11,1.0,269.5,-9999.0,'1111122,1111122,1111122' 
SCCF RECON,ioos:station:SCCF:53:1,2017-02-02T18:30:00Z,26.6493,-81.8810,2.11,1.5,277.2,-9999.0,'1111122,1111122,1111122' 
SCCF RECON,ioos:station:SCCF:53:1,2017-02-02T18:45:00Z,26.6493,-81.8810,2.11,1.0,276.2,-9999.0,'1111122,1111122,1111122' 
SCCF RECON,ioos:station:SCCF:53:1,2017-02-02T19:00:00Z,26.6493,-81.8810,2.11,1.5,301.0,-9999.0,'1111122,1111122,1111122' 
SCCF RECON,ioos:station:SCCF:53:1,2017-02-02T19:15:00Z,26.6493,-81.8810,2.11,1.4,278.5,-9999.0,'1111122,1111122,1111122' 
SCCF RECON,ioos:station:SCCF:53:1,2017-02-02T19:30:00Z,26.6493,-81.8810,2.11,1.6,270.9,-9999.0,'1111122,1111122,1111122' 
SCCF RECON,ioos:station:SCCF:53:1,2017-02-02T19:45:00Z,26.6493,-81.8810,2.11,1.1,297.0,-9999.0,'1111122,1111122,1111122' 
SCCF RECON,ioos:station:SCCF:53:1,2017-02-02T20:00:00Z,26.6493,-81.8810,2.11,1.1,304.7,-9999.0,'1111122,1111122,1111122' 
SCCF RECON,ioos:station:SCCF:53:1,2017-02-02T20:15:00Z,26.6493,-81.8810,2.11,1.4,298.7,-9999.0,'1111122,1111122,1111122' 
SCCF RECON,ioos:station:SCCF:53:1,2017-02-02T20:30:00Z,26.6493,-81.8810,2.11,1.9,279.8,-9999.0,'1111122,1111122,1111122' 
SCCF RECON,ioos:station:SCCF:53:1,2017-02-02T20:45:00Z,26.6493,-81.8810,2.11,0.8,253.2,-9999.0,'1111122,1111122,1111122' 
SCCF RECON,ioos:station:SCCF:53:1,2017-02-02T21:00:00Z,26.6493,-81.8810,2.11,0.9,245.3,-9999.0,'1111122,1111122,1111122' 
SCCF RECON,ioos:station:SCCF:53:1,2017-02-02T21:15:00Z,26.6493,-81.8810,2.11,1.4,261.6,-9999.0,'1111122,1111122,1111122' 
SCCF RECON,ioos:station:SCCF:53:1,2017-02-02T21:30:00Z,26.6493,-81.8810,2.11,4.7,299.5,-9999.0,'1111122,1111122,1111122' 
SCCF RECON,ioos:station:SCCF:53:1,2017-02-02T21:45:00Z,26.6493,-81.8810,2.11,6.4,304.7,-9999.0,'1111122,1111122,1111122' 
SCCF RECON,ioos:station:SCCF:53:1,2017-02-02T22:00:00Z,26.6493,-81.8810,2.11,4.9,295.5,-9999.0,'1111122,1111122,1111122' 
SCCF RECON,ioos:station:SCCF:53:1,2017-02-02T22:15:00Z,26.6493,-81.8810,2.11,4.7,294.1,-9999.0,'1111122,1111122,1111122' 
SCCF RECON,ioos:station:SCCF:53:1,2017-02-02T22:30:00Z,26.6493,-81.8810,2.11,4.0,303.2,-9999.0,'1111122,1111122,1111122' 
SCCF RECON,ioos:station:SCCF:53:1,2017-02-02T22:45:00Z,26.6493,-81.8810,2.11,4.0,297.4,-9999.0,'1111122,1111122,1111122' 
SCCF RECON,ioos:station:SCCF:53:1,2017-02-02T23:00:00Z,26.6493,-81.8810,2.11,4.3,295.7,-9999.0,'1111122,1111122,1111122' 
SCCF RECON,ioos:station:SCCF:53:1,2017-02-02T23:15:00Z,26.6493,-81.8810,2.11,4.9,297.6,-9999.0,'1111122,1111122,1111122' 
SCCF RECON,ioos:station:SCCF:53:1,2017-02-02T23:30:00Z,26.6493,-81.8810,2.11,3.2,293.8,-9999.0,'1111122,1111122,1111122' 
SCCF RECON,ioos:station:SCCF:53:1,2017-02-02T23:45:00Z,26.6493,-81.8810,2.11,1.7,287.7,-9999.0,'1111122,1111122,1111122' 
SCCF RECON,ioos:station:SCCF:53:1,2017-02-03T00:00:00Z,26.6493,-81.8810,2.11,2.2,296.5,-9999.0,'1111122,1111122,1111122' 
SCCF RECON,ioos:station:SCCF:53:1,2017-02-03T00:15:00Z,26.6493,-81.8810,2.11,1.7,292.8,-9999.0,'1111122,1111122,1111122' 
SCCF RECON,ioos:station:SCCF:53:1,2017-02-03T00:30:00Z,26.6493,-81.8810,2.11,1.4,306.5,-9999.0,'1111122,1111122,1111122' 
SCCF RECON,ioos:station:SCCF:53:1,2017-02-03T00:45:00Z,26.6493,-81.8810,2.11,1.6,330.3,-9999.0,'1111122,1111122,1111122' 